Location: Saratoga Springs
(43.0831°N, 73.7850°W)
Time: 08:03:30
(UTC-04:00)

Vanguard 1 Rocket - Pass Details

Date: 14 April 2024
Orbit: 650 x 4220 km, 34.3° (Epoch: 22 May)

Event Time Altitude Azimuth Distance (km) Brightness Sun altitude
Rises 21:45:31 0° 247° (WSW) 3,618 10.9 -21.7°
Reaches altitude 10° 21:47:40 10° 241° (WSW) 2,914 10.2 -22.0°
Maximum altitude 21:54:32 50° 167° (SSE) 1,942 8.7 -22.9°
Enters shadow 21:59:25 33° 115° (ESE) 2,956 9.4 -23.6°
Drops below altitude 10° 22:07:34 10° 99° (E) 5,372 - -24.7°
Sets 22:13:09 0° 95° (E) 6,972 - -25.4°
